| time (UTC) | temp F | wind direction | speed MPH | gust MPH | rain 1hr in | rain 24hr in | rain mn in | humidity % | barometer mb |
| 20260504020727 | 64 | 45 | 2.0 | 11.0 | 0.00 | 0.00 | 0.00 | 84 | 917.1 |
| 20260504015927 | 64 | 21 | 2.0 | 10.0 | 0.00 | 0.00 | 0.00 | 85 | 917.1 |
| 20260504015726 | 64 | 34 | 5.0 | 11.0 | 0.00 | 0.00 | 0.00 | 84 | 917.0 |
| 20260504015327 | 64 | 27 | 10.0 | 14.0 | 0.00 | 0.00 | 0.00 | 84 | 916.8 |
| 20260504015226 | 64 | 57 | 10.0 | 14.0 | 0.00 | 0.00 | 0.00 | 84 | 916.8 |
| 20260504014727 | 64 | 43 | 10.0 | 13.0 | 0.00 | 0.00 | 0.00 | 85 | 917.0 |
| 20260504014226 | 63 | 23 | 6.0 | 13.0 | 0.00 | 0.00 | 0.00 | 85 | 917.0 |
| 20260504014127 | 63 | 19 | 0.0 | 10.0 | 0.00 | 0.00 | 0.00 | 85 | 917.0 |
| 20260504013726 | 63 | 46 | 11.0 | 13.0 | 0.00 | 0.00 | 0.00 | 85 | 917.0 |
| 20260504013527 | 63 | 45 | 9.0 | 13.0 | 0.00 | 0.00 | 0.00 | 85 | 917.1 |
| 20260504012927 | 63 | 45 | 2.0 | 12.0 | 0.00 | 0.00 | 0.00 | 84 | 917.1 |
| 20260504012726 | 64 | 58 | 10.0 | 13.0 | 0.00 | 0.00 | 0.00 | 84 | 917.1 |
| 20260504012327 | 64 | 65 | 9.0 | 12.0 | 0.00 | 0.00 | 0.00 | 84 | 917.1 |
| 20260504012226 | 64 | 59 | 9.0 | 12.0 | 0.00 | 0.00 | 0.00 | 84 | 917.0 |
| 20260504011727 | 64 | 46 | 8.0 | 15.0 | 0.00 | 0.00 | 0.00 | 84 | 916.8 |
| 20260504011225 | 64 | 41 | 6.0 | 13.0 | 0.00 | 0.00 | 0.00 | 84 | 916.8 |
| 20260504011127 | 64 | 53 | 0.0 | 11.0 | 0.00 | 0.00 | 0.00 | 84 | 916.8 |
| 20260504010725 | 64 | 43 | 10.0 | 12.0 | 0.00 | 0.00 | 0.00 | 84 | 916.7 |
| 20260504010528 | 64 | 47 | 10.0 | 12.0 | 0.00 | 0.00 | 0.00 | 84 | 916.6 |
| 20260504010225 | 64 | 36 | 1.0 | 11.0 | 0.00 | 0.00 | 0.00 | 85 | 916.6 |
| 20260504005927 | 64 | 21 | 5.0 | 13.0 | 0.00 | 0.00 | 0.00 | 84 | 916.6 |
| 20260504005725 | 64 | 39 | 10.0 | 12.0 | 0.00 | 0.00 | 0.00 | 84 | 916.6 |
| 20260504005327 | 64 | 34 | 9.0 | 12.0 | 0.00 | 0.00 | 0.00 | 84 | 916.6 |
| 20260504005225 | 64 | 19 | 8.0 | 12.0 | 0.00 | 0.00 | 0.00 | 85 | 916.6 |
| 20260504004225 | 63 | 36 | 6.0 | 13.0 | 0.00 | 0.00 | 0.00 | 84 | 916.5 |
| 20260504004126 | 63 | 33 | 0.0 | 11.0 | 0.00 | 0.00 | 0.00 | 85 | 916.4 |
| 20260504003726 | 63 | 25 | 11.0 | 13.0 | 0.00 | 0.00 | 0.00 | 84 | 916.5 |
| 20260504003526 | 63 | 35 | 3.0 | 13.0 | 0.00 | 0.00 | 0.00 | 85 | 916.5 |
| 20260504003226 | 63 | 33 | 10.0 | 12.0 | 0.00 | 0.00 | 0.00 | 85 | 916.6 |
| 20260504002926 | 63 | 28 | 11.0 | 12.0 | 0.00 | 0.00 | 0.00 | 85 | 916.6 |
| 20260504002725 | 62 | 29 | 1.0 | 12.0 | 0.00 | 0.00 | 0.00 | 85 | 916.6 |
| 20260504002326 | 62 | 7 | 2.0 | 12.0 | 0.00 | 0.00 | 0.00 | 85 | 916.5 |
| 20260504002225 | 62 | 38 | 10.0 | 15.0 | 0.00 | 0.00 | 0.00 | 85 | 916.5 |
| 20260504001727 | 62 | 22 | 11.0 | 15.0 | 0.00 | 0.00 | 0.00 | 85 | 916.4 |
| 20260504001725 | 62 | 9 | 11.0 | 15.0 | 0.00 | 0.00 | 0.00 | 85 | 916.5 |
| 20260504001225 | 62 | 10 | 12.0 | 16.0 | 0.00 | 0.00 | 0.00 | 85 | 916.3 |
| 20260504001126 | 62 | 29 | 11.0 | 16.0 | 0.00 | 0.00 | 0.00 | 85 | 916.3 |
| 20260504000725 | 61 | 25 | 12.0 | 16.0 | 0.00 | 0.00 | 0.00 | 86 | 916.2 |
| 20260504000526 | 61 | 32 | 12.0 | 16.0 | 0.00 | 0.00 | 0.00 | 86 | 916.2 |
| 20260504000226 | 61 | 20 | 12.0 | 17.0 | 0.00 | 0.00 | 0.00 | 86 | 916.1 |
| 20260503235926 | 61 | 4 | 14.0 | 17.0 | 0.00 | 0.00 | 0.00 | 86 | 916.1 |
| 20260503235326 | 62 | 21 | 12.0 | 17.0 | 0.00 | 0.00 | 0.00 | 86 | 916.0 |
| 20260503235225 | 62 | 32 | 12.0 | 17.0 | 0.00 | 0.00 | 0.00 | 85 | 916.0 |
| 20260503234727 | 62 | 16 | 11.0 | 14.0 | 0.00 | 0.00 | 0.00 | 86 | 916.0 |
| 20260503234725 | 62 | 26 | 11.0 | 14.0 | 0.00 | 0.00 | 0.00 | 86 | 916.0 |
| 20260503234225 | 62 | 22 | 11.0 | 14.0 | 0.00 | 0.00 | 0.00 | 86 | 915.9 |
| 20260503234127 | 62 | 7 | 11.0 | 14.0 | 0.00 | 0.00 | 0.00 | 86 | 915.9 |
| 20260503233725 | 61 | 12 | 12.0 | 16.0 | 0.00 | 0.00 | 0.00 | 86 | 915.7 |
| 20260503233526 | 61 | 11 | 11.0 | 16.0 | 0.00 | 0.00 | 0.00 | 86 | 915.8 |
| 20260503233225 | 61 | 19 | 12.0 | 16.0 | 0.00 | 0.00 | 0.00 | 86 | 915.8 |
| 20260503232927 | 61 | 2 | 12.0 | 15.0 | 0.00 | 0.00 | 0.00 | 86 | 915.6 |
| 20260503232726 | 61 | 16 | 13.0 | 16.0 | 0.00 | 0.00 | 0.00 | 86 | 915.6 |
| 20260503232326 | 61 | 6 | 12.0 | 16.0 | 0.00 | 0.00 | 0.00 | 87 | 915.5 |
| 20260503232225 | 61 | 9 | 12.0 | 16.0 | 0.00 | 0.00 | 0.00 | 87 | 915.6 |
| 20260503231728 | 61 | 352 | 12.0 | 17.0 | 0.00 | 0.00 | 0.00 | 87 | 915.6 |
| 20260503231726 | 61 | 18 | 12.0 | 17.0 | 0.00 | 0.00 | 0.00 | 87 | 915.5 |
| 20260503231224 | 61 | 13 | 13.0 | 17.0 | 0.00 | 0.00 | 0.00 | 87 | 915.3 |
| 20260503231126 | 61 | 3 | 13.0 | 17.0 | 0.00 | 0.00 | 0.00 | 87 | 915.4 |
| 20260503230726 | 62 | 20 | 8.0 | 17.0 | 0.00 | 0.00 | 0.00 | 87 | 915.4 |
| 20260503230526 | 62 | 23 | 13.0 | 16.0 | 0.00 | 0.00 | 0.00 | 87 | 915.4 |
| 20260503230225 | 61 | 3 | 11.0 | 14.0 | 0.00 | 0.00 | 0.00 | 87 | 915.5 |
| 20260503225926 | 61 | 12 | 10.0 | 14.0 | 0.00 | 0.00 | 0.00 | 88 | 915.4 |
| 20260503225724 | 61 | 21 | 10.0 | 13.0 | 0.00 | 0.00 | 0.00 | 88 | 915.4 |
| 20260503225326 | 61 | 12 | 10.0 | 13.0 | 0.00 | 0.00 | 0.00 | 88 | 915.5 |
| 20260503225224 | 61 | 360 | 10.0 | 13.0 | 0.00 | 0.00 | 0.00 | 88 | 915.4 |
| 20260503224726 | 62 | 3 | 10.0 | 13.0 | 0.00 | 0.00 | 0.00 | 87 | 915.2 |
| 20260503224724 | 62 | 4 | 10.0 | 13.0 | 0.00 | 0.00 | 0.00 | 87 | 915.3 |
| 20260503224224 | 62 | 360 | 9.0 | 12.0 | 0.00 | 0.00 | 0.00 | 87 | 915.2 |
| 20260503224126 | 62 | 349 | 9.0 | 12.0 | 0.00 | 0.00 | 0.00 | 87 | 915.1 |
| 20260503223724 | 62 | 353 | 9.0 | 11.0 | 0.00 | 0.00 | 0.00 | 87 | 915.1 |
| 20260503223525 | 62 | 360 | 6.0 | 11.0 | 0.00 | 0.00 | 0.00 | 87 | 915.1 |
| 20260503223224 | 62 | 8 | 10.0 | 12.0 | 0.00 | 0.00 | 0.00 | 87 | 915.1 |
| 20260503222925 | 63 | 2 | 7.0 | 12.0 | 0.00 | 0.00 | 0.00 | 87 | 915.0 |
| 20260503222325 | 63 | 355 | 10.0 | 13.0 | 0.00 | 0.00 | 0.00 | 87 | 914.9 |
| 20260503222224 | 63 | 360 | 11.0 | 13.0 | 0.00 | 0.00 | 0.00 | 87 | 914.8 |
| 20260503221726 | 62 | 22 | 4.0 | 11.0 | 0.00 | 0.00 | 0.00 | 87 | 915.0 |
| 20260503221724 | 62 | 6 | 4.0 | 11.0 | 0.00 | 0.00 | 0.00 | 87 | 915.0 |
| 20260503221226 | 62 | 22 | 0.0 | 0.0 | 0.00 | 0.00 | 0.00 | 87 | 914.8 |
| 20260503221125 | 62 | 13 | 9.0 | 12.0 | 0.00 | 0.00 | 0.00 | 87 | 914.8 |
| 20260503220724 | 62 | 336 | 11.0 | 15.0 | 0.00 | 0.00 | 0.00 | 87 | 914.6 |
| 20260503220525 | 62 | 2 | 9.0 | 15.0 | 0.00 | 0.00 | 0.00 | 87 | 914.6 |
| 20260503220225 | 61 | 341 | 6.0 | 15.0 | 0.00 | 0.00 | 0.00 | 87 | 914.5 |
| 20260503215925 | 62 | 344 | 10.0 | 14.0 | 0.00 | 0.00 | 0.00 | 87 | 914.4 |
| 20260503215724 | 62 | 360 | 9.0 | 14.0 | 0.00 | 0.00 | 0.00 | 87 | 914.3 |
| 20260503215325 | 62 | 360 | 10.0 | 16.0 | 0.00 | 0.00 | 0.00 | 87 | 914.3 |
| 20260503215224 | 61 | 333 | 11.0 | 16.0 | 0.00 | 0.00 | 0.00 | 87 | 914.2 |
| 20260503214725 | 62 | 360 | 12.0 | 16.0 | 0.00 | 0.00 | 0.00 | 87 | 914.1 |
| 20260503214224 | 62 | 2 | 12.0 | 15.0 | 0.00 | 0.00 | 0.00 | 87 | 914.1 |
| 20260503214125 | 62 | 1 | 10.0 | 16.0 | 0.00 | 0.00 | 0.00 | 87 | 914.1 |
| 20260503213724 | 62 | 349 | 11.0 | 16.0 | 0.00 | 0.00 | 0.00 | 87 | 914.3 |
| 20260503213525 | 62 | 22 | 10.0 | 16.0 | 0.00 | 0.00 | 0.00 | 87 | 914.2 |
| 20260503213224 | 62 | 0 | 12.0 | 16.0 | 0.00 | 0.00 | 0.00 | 87 | 914.1 |
| 20260503212925 | 62 | 8 | 11.0 | 15.0 | 0.00 | 0.00 | 0.00 | 87 | 914.0 |
| 20260503212724 | 62 | 1 | 11.0 | 16.0 | 0.00 | 0.00 | 0.00 | 87 | 914.0 |
| 20260503212325 | 62 | 360 | 12.0 | 17.0 | 0.00 | 0.00 | 0.00 | 86 | 913.9 |
| 20260503212224 | 62 | 16 | 11.0 | 17.0 | 0.00 | 0.00 | 0.00 | 87 | 914.0 |
| 20260503211725 | 62 | 2 | 13.0 | 17.0 | 0.00 | 0.00 | 0.00 | 87 | 913.9 |
| 20260503211125 | 63 | 1 | 12.0 | 16.0 | 0.00 | 0.00 | 0.00 | 88 | 913.8 |
| 20260503210525 | 63 | 360 | 12.0 | 17.0 | 0.00 | 0.00 | 0.00 | 88 | 913.7 |
| 20260503210223 | 63 | 358 | 13.0 | 17.0 | 0.00 | 0.00 | 0.00 | 88 | 913.6 |
| 20260503205925 | 63 | 360 | 13.0 | 17.0 | 0.00 | 0.00 | 0.00 | 89 | 913.6 |
| 20260503205723 | 63 | 3 | 12.0 | 17.0 | 0.00 | 0.00 | 0.00 | 89 | 913.6 |
| 20260503205325 | 63 | 360 | 11.0 | 15.0 | 0.00 | 0.00 | 0.00 | 89 | 913.5 |
| 20260503205223 | 63 | 7 | 10.0 | 15.0 | 0.00 | 0.00 | 0.00 | 89 | 913.7 |
| 20260503204725 | 63 | 6 | 11.0 | 17.0 | 0.00 | 0.00 | 0.00 | 89 | 913.7 |
| 20260503204723 | 63 | 347 | 11.0 | 17.0 | 0.00 | 0.00 | 0.00 | 89 | 913.7 |
| 20260503204223 | 63 | 351 | 9.0 | 12.0 | 0.00 | 0.00 | 0.00 | 90 | 913.6 |
| 20260503204125 | 63 | 344 | 8.0 | 13.0 | 0.00 | 0.00 | 0.00 | 90 | 913.6 |
| 20260503203525 | 63 | 355 | 7.0 | 13.0 | 0.00 | 0.00 | 0.00 | 90 | 913.5 |
| 20260503203223 | 63 | 360 | 6.0 | 13.0 | 0.00 | 0.00 | 0.00 | 91 | 913.3 |
| 20260503202925 | 63 | 351 | 6.0 | 13.0 | 0.00 | 0.00 | 0.00 | 91 | 913.4 |
| 20260503202724 | 64 | 345 | 7.0 | 13.0 | 0.00 | 0.00 | 0.00 | 91 | 913.5 |
| 20260503202325 | 63 | 360 | 7.0 | 13.0 | 0.00 | 0.00 | 0.00 | 91 | 913.4 |
| 20260503202223 | 63 | 345 | 8.0 | 13.0 | 0.00 | 0.00 | 0.00 | 91 | 913.4 |
| 20260503201725 | 63 | 360 | 8.0 | 12.0 | 0.00 | 0.00 | 0.00 | 91 | 913.4 |
| 20260503201723 | 63 | 348 | 8.0 | 12.0 | 0.00 | 0.00 | 0.00 | 91 | 913.3 |
| 20260503201124 | 62 | 349 | 10.0 | 14.0 | 0.00 | 0.00 | 0.00 | 91 | 913.5 |
| 20260503200723 | 63 | 343 | 10.0 | 14.0 | 0.00 | 0.00 | 0.00 | 91 | 913.3 |
| 20260503200524 | 63 | 36 | 9.0 | 13.0 | 0.00 | 0.00 | 0.00 | 91 | 913.5 |
| 20260503200224 | 63 | 3 | 9.0 | 13.0 | 0.00 | 0.00 | 0.00 | 92 | 913.4 |
| 20260503195925 | 62 | 313 | 10.0 | 13.0 | 0.00 | 0.00 | 0.00 | 92 | 913.5 |
| 20260503195723 | 63 | 347 | 9.0 | 14.0 | 0.00 | 0.00 | 0.00 | 92 | 913.4 |
| 20260503195324 | 62 | 353 | 10.0 | 14.0 | 0.00 | 0.00 | 0.00 | 92 | 913.3 |
| 20260503195223 | 62 | 347 | 10.0 | 14.0 | 0.00 | 0.00 | 0.00 | 92 | 913.3 |
| 20260503194723 | 61 | 354 | 11.0 | 14.0 | 0.00 | 0.00 | 0.00 | 92 | 913.4 |
| 20260503194223 | 61 | 337 | 10.0 | 15.0 | 0.00 | 0.00 | 0.00 | 93 | 913.4 |
| 20260503194124 | 61 | 333 | 10.0 | 15.0 | 0.00 | 0.00 | 0.00 | 93 | 913.5 |
| 20260503193723 | 61 | 7 | 12.0 | 15.0 | 0.00 | 0.00 | 0.00 | 94 | 913.5 |
| 20260503193525 | 61 | 10 | 11.0 | 16.0 | 0.00 | 0.00 | 0.00 | 95 | 913.5 |
| 20260503193223 | 61 | 9 | 10.0 | 16.0 | 0.00 | 0.00 | 0.00 | 95 | 913.5 |
| 20260503192924 | 61 | 349 | 11.0 | 16.0 | 0.00 | 0.00 | 0.00 | 95 | 913.5 |
| 20260503192723 | 60 | 345 | 12.0 | 16.0 | 0.00 | 0.00 | 0.00 | 95 | 913.5 |
| 20260503192324 | 60 | 348 | 11.0 | 16.0 | 0.00 | 0.00 | 0.00 | 95 | 913.5 |
| 20260503191724 | 60 | 359 | 13.0 | 16.0 | 0.00 | 0.00 | 0.00 | 95 | 913.4 |
| 20260503191223 | 60 | 360 | 12.0 | 16.0 | 0.00 | 0.00 | 0.00 | 96 | 913.4 |
| 20260503191124 | 60 | 342 | 12.0 | 16.0 | 0.00 | 0.00 | 0.00 | 96 | 913.5 |
| 20260503190723 | 61 | 360 | 11.0 | 14.0 | 0.00 | 0.00 | 0.00 | 96 | 913.6 |
| 20260503190524 | 62 | 359 | 9.0 | 13.0 | 0.00 | 0.00 | 0.00 | 96 | 913.7 |
| 20260503190223 | 62 | 357 | 8.0 | 11.0 | 0.00 | 0.00 | 0.00 | 96 | 913.7 |
| 20260503185924 | 62 | 335 | 6.0 | 10.0 | 0.00 | 0.00 | 0.00 | 96 | 913.8 |
| 20260503185723 | 63 | 360 | 6.0 | 10.0 | 0.00 | 0.00 | 0.00 | 96 | 913.9 |
| 20260503185324 | 63 | 305 | 4.0 | 8.0 | 0.00 | 0.00 | 0.00 | 96 | 913.9 |
| 20260503185224 | 63 | 328 | 3.0 | 7.0 | 0.00 | 0.00 | 0.00 | 96 | 914.0 |
| 20260503184724 | 63 | 325 | 3.0 | 7.0 | 0.00 | 0.00 | 0.00 | 96 | 913.9 |
| 20260503184722 | 63 | 317 | 3.0 | 7.0 | 0.00 | 0.00 | 0.00 | 96 | 913.9 |
| 20260503184223 | 63 | 309 | 2.0 | 5.0 | 0.00 | 0.00 | 0.00 | 96 | 914.0 |
| 20260503184124 | 63 | 335 | 2.0 | 5.0 | 0.00 | 0.00 | 0.00 | 96 | 914.0 |
| 20260503183722 | 63 | 334 | 2.0 | 4.0 | 0.00 | 0.00 | 0.00 | 97 | 913.9 |
| 20260503183524 | 63 | 353 | 1.0 | 5.0 | 0.00 | 0.00 | 0.00 | 97 | 913.9 |
| 20260503183223 | 63 | 354 | 3.0 | 5.0 | 0.00 | 0.00 | 0.00 | 97 | 913.9 |
| 20260503182924 | 63 | 40 | 2.0 | 4.0 | 0.00 | 0.00 | 0.00 | 97 | 913.9 |
| 20260503182723 | 63 | 44 | 2.0 | 4.0 | 0.00 | 0.00 | 0.00 | 97 | 913.9 |
| 20260503182324 | 63 | 355 | 2.0 | 3.0 | 0.00 | 0.00 | 0.00 | 97 | 913.9 |
| 20260503182222 | 63 | 8 | 2.0 | 3.0 | 0.00 | 0.00 | 0.00 | 97 | 914.0 |
| 20260503181722 | 63 | 360 | 2.0 | 3.0 | 0.00 | 0.00 | 0.00 | 97 | 914.1 |
| 20260503181222 | 63 | 20 | 1.0 | 2.0 | 0.00 | 0.00 | 0.00 | 97 | 914.2 |
| 20260503181123 | 63 | 13 | 0.0 | 2.0 | 0.00 | 0.00 | 0.00 | 97 | 914.2 |
| 20260503180722 | 63 | 254 | 0.0 | 4.0 | 0.00 | 0.00 | 0.00 | 97 | 914.3 |
| 20260503180524 | 63 | 260 | 0.0 | 4.0 | 0.00 | 0.00 | 0.00 | 97 | 914.3 |
| 20260503180222 | 63 | 277 | 0.0 | 4.0 | 0.00 | 0.00 | 0.00 | 97 | 914.4 |
| 20260503175923 | 63 | 315 | 3.0 | 4.0 | 0.00 | 0.00 | 0.00 | 97 | 914.5 |
| 20260503175722 | 63 | 301 | 3.0 | 4.0 | 0.00 | 0.00 | 0.00 | 97 | 914.6 |
| 20260503175323 | 63 | 266 | 2.0 | 4.0 | 0.00 | 0.00 | 0.00 | 98 | 914.6 |
| 20260503175222 | 63 | 277 | 3.0 | 4.0 | 0.00 | 0.00 | 0.00 | 98 | 914.6 |
| 20260503174123 | 63 | 288 | 0.0 | 3.0 | 0.00 | 0.00 | 0.00 | 98 | 914.7 |
| 20260503173523 | 63 | 263 | 2.0 | 4.0 | 0.00 | 0.00 | 0.00 | 97 | 914.8 |
| 20260503173222 | 63 | 262 | 2.0 | 4.0 | 0.00 | 0.00 | 0.00 | 97 | 914.9 |
| 20260503172923 | 63 | 260 | 2.0 | 6.0 | 0.00 | 0.00 | 0.00 | 97 | 914.9 |
| 20260503172722 | 63 | 264 | 2.0 | 6.0 | 0.00 | 0.00 | 0.00 | 97 | 914.9 |
| 20260503172324 | 63 | 251 | 3.0 | 6.0 | 0.00 | 0.00 | 0.00 | 97 | 914.9 |
| 20260503171724 | 63 | 227 | 4.0 | 5.0 | 0.00 | 0.00 | 0.00 | 97 | 915.0 |
| 20260503171123 | 63 | 224 | 2.0 | 5.0 | 0.00 | 0.00 | 0.00 | 97 | 915.2 |
| 20260503170722 | 63 | 242 | 2.0 | 6.0 | 0.00 | 0.00 | 0.00 | 97 | 915.2 |
| 20260503170523 | 63 | 215 | 3.0 | 6.0 | 0.00 | 0.00 | 0.00 | 97 | 915.3 |
| 20260503170222 | 63 | 201 | 4.0 | 6.0 | 0.00 | 0.00 | 0.00 | 97 | 915.3 |
| 20260503150721 | 65 | 87 | 2.0 | 4.0 | 0.00 | 0.00 | 0.00 | 95 | 915.6 |
| 20260503150221 | 65 | 46 | 3.0 | 8.0 | 0.00 | 0.00 | 0.00 | 95 | 915.6 |
| 20260503140220 | 64 | 38 | 4.0 | 8.0 | 0.01 | 0.01 | 0.00 | 98 | 915.3 |
| 20260503131121 | 63 | 12 | 0.0 | 9.0 | 0.00 | 0.00 | 0.00 | 98 | 915.4 |
| 20260503130521 | 64 | 1 | 8.0 | 13.0 | 0.00 | 0.00 | 0.00 | 98 | 915.0 |
| 20260503120219 | 64 | 67 | 8.0 | 16.0 | 0.01 | 0.01 | 0.00 | 97 | 914.8 |
| 20260503110719 | 63 | 56 | 9.0 | 14.0 | 0.00 | 0.00 | 0.00 | 97 | 913.4 |
| 20260503110520 | 63 | 70 | 1.0 | 13.0 | 0.00 | 0.00 | 0.00 | 97 | 913.4 |
| 20260503110219 | 63 | 42 | 6.0 | 10.0 | 0.00 | 0.00 | 0.00 | 98 | 913.5 |
| 20260503100220 | 63 | 14 | 7.0 | 10.0 | 0.01 | 0.01 | 0.00 | 97 | 912.9 |
| 20260503090218 | 64 | 4 | 9.0 | 16.0 | 0.00 | 0.00 | 0.00 | 99 | 911.8 |
| 20260503081218 | 64 | 335 | 5.0 | 11.0 | 0.02 | 0.02 | 0.00 | 98 | 911.9 |
| 20260503081119 | 64 | 30 | 4.0 | 9.0 | 0.02 | 0.02 | 0.00 | 98 | 912.0 |
| 20260503080717 | 64 | 16 | 3.0 | 7.0 | 0.01 | 0.01 | 0.00 | 98 | 912.3 |
| 20260503080520 | 64 | 152 | 4.0 | 7.0 | 0.01 | 0.01 | 0.00 | 98 | 912.3 |
| 20260503080217 | 64 | 41 | 0.0 | 7.0 | 0.00 | 0.00 | 0.00 | 98 | 912.2 |
| 20260503072919 | 63 | 259 | 4.0 | 11.0 | 0.01 | 0.01 | 0.00 | 98 | 911.9 |
| 20260503072717 | 63 | 352 | 5.0 | 11.0 | 0.01 | 0.01 | 0.00 | 98 | 911.8 |
| 20260503072318 | 63 | 10 | 5.0 | 11.0 | 0.00 | 0.00 | 0.00 | 98 | 912.0 |
| 20260503072217 | 63 | 360 | 1.0 | 10.0 | 0.00 | 0.00 | 0.00 | 98 | 911.9 |
| 20260503071719 | 64 | 151 | 4.0 | 12.0 | 0.00 | 0.00 | 0.00 | 98 | 912.2 |
| 20260503071717 | 64 | 145 | 4.0 | 12.0 | 0.00 | 0.00 | 0.00 | 98 | 912.2 |
| 20260503071218 | 63 | 184 | 0.0 | 0.0 | 0.00 | 0.00 | 0.00 | 98 | 912.2 |
| 20260503071118 | 63 | 13 | 1.0 | 9.0 | 0.00 | 0.00 | 0.00 | 98 | 912.4 |
| 20260503070717 | 63 | 250 | 4.0 | 10.0 | 0.00 | 0.00 | 0.00 | 98 | 912.2 |
| 20260503070518 | 63 | 56 | 4.0 | 9.0 | 0.00 | 0.00 | 0.00 | 98 | 912.3 |
| 20260503070217 | 63 | 131 | 0.0 | 4.0 | 0.00 | 0.00 | 0.00 | 98 | 912.1 |
| 20260503060217 | 63 | 360 | 8.0 | 13.0 | 0.00 | 0.00 | 0.00 | 98 | 912.6 |
| 20260503054718 | 63 | 50 | 2.0 | 14.0 | 0.00 | 0.00 | 0.00 | 98 | 912.3 |
| 20260503054716 | 63 | 38 | 2.0 | 14.0 | 0.00 | 0.00 | 0.00 | 98 | 912.3 |
| 20260503054118 | 64 | 26 | 11.0 | 16.0 | 0.00 | 0.00 | 0.00 | 98 | 912.4 |
| 20260503053718 | 63 | 10 | 9.0 | 16.0 | 0.00 | 0.00 | 0.00 | 98 | 912.4 |
| 20260503053518 | 63 | 23 | 7.0 | 16.0 | 0.00 | 0.00 | 0.00 | 98 | 912.5 |
| 20260503053216 | 63 | 27 | 0.0 | 9.0 | 0.00 | 0.00 | 0.00 | 98 | 912.7 |
| 20260503052917 | 64 | 357 | 10.0 | 16.0 | 0.00 | 0.00 | 0.00 | 98 | 912.6 |
| 20260503052716 | 64 | 34 | 10.0 | 16.0 | 0.00 | 0.00 | 0.00 | 98 | 912.8 |
| 20260503052317 | 64 | 34 | 9.0 | 16.0 | 0.00 | 0.00 | 0.00 | 98 | 913.0 |
| 20260503052216 | 64 | 360 | 7.0 | 12.0 | 0.00 | 0.00 | 0.00 | 98 | 913.0 |
| 20260503051718 | 64 | 28 | 6.0 | 17.0 | 0.00 | 0.00 | 0.00 | 97 | 913.0 |
| 20260503051716 | 64 | 16 | 6.0 | 17.0 | 0.00 | 0.00 | 0.00 | 97 | 913.0 |
| 20260503051216 | 64 | 58 | 5.0 | 15.0 | 0.00 | 0.00 | 0.00 | 98 | 913.2 |
| 20260503051117 | 64 | 59 | 0.0 | 0.0 | 0.00 | 0.00 | 0.00 | 97 | 913.1 |
| 20260503050716 | 65 | 59 | 6.0 | 15.0 | 0.00 | 0.00 | 0.00 | 98 | 913.2 |
| 20260503050517 | 65 | 29 | 7.0 | 15.0 | 0.00 | 0.00 | 0.00 | 98 | 913.3 |
| 20260503050216 | 65 | 21 | 9.0 | 17.0 | 0.00 | 0.00 | 0.00 | 98 | 913.2 |
| 20260503045716 | 66 | 62 | 1.0 | 15.0 | 0.00 | 0.00 | 0.00 | 98 | 913.3 |
| 20260503045317 | 67 | 46 | 5.0 | 8.0 | 0.00 | 0.00 | 0.00 | 97 | 913.5 |
| 20260503045216 | 67 | 360 | 2.0 | 8.0 | 0.00 | 0.00 | 0.00 | 97 | 913.6 |
| 20260503044718 | 69 | 124 | 2.0 | 4.0 | 0.00 | 0.00 | 0.00 | 98 | 913.7 |
| 20260503044216 | 69 | 181 | 0.0 | 3.0 | 0.00 | 0.00 | 0.00 | 98 | 913.8 |
| 20260503044117 | 69 | 319 | 2.0 | 6.0 | 0.00 | 0.00 | 0.00 | 98 | 913.9 |
| 20260503043716 | 69 | 259 | 3.0 | 8.0 | 0.00 | 0.00 | 0.00 | 98 | 913.7 |
| 20260503043517 | 69 | 220 | 0.0 | 0.0 | 0.00 | 0.00 | 0.00 | 98 | 913.8 |
| 20260503043216 | 69 | 188 | 2.0 | 8.0 | 0.00 | 0.00 | 0.00 | 98 | 913.9 |
| 20260503042917 | 69 | 290 | 5.0 | 8.0 | 0.00 | 0.00 | 0.00 | 98 | 913.8 |
| 20260503042716 | 69 | 280 | 3.0 | 6.0 | 0.00 | 0.00 | 0.00 | 98 | 913.8 |
| 20260503042317 | 69 | 260 | 1.0 | 5.0 | 0.00 | 0.00 | 0.00 | 98 | 913.9 |
| 20260503041718 | 69 | 283 | 3.0 | 9.0 | 0.00 | 0.00 | 0.00 | 98 | 914.1 |
| 20260503041716 | 69 | 268 | 3.0 | 9.0 | 0.00 | 0.00 | 0.00 | 98 | 914.1 |
| 20260503041216 | 69 | 271 | 3.0 | 5.0 | 0.00 | 0.00 | 0.00 | 98 | 914.1 |
| 20260503041117 | 69 | 250 | 2.0 | 5.0 | 0.00 | 0.00 | 0.00 | 98 | 914.1 |
| 20260503040715 | 69 | 271 | 0.0 | 5.0 | 0.00 | 0.00 | 0.00 | 98 | 914.1 |
| 20260503040517 | 69 | 250 | 1.0 | 6.0 | 0.00 | 0.00 | 0.00 | 98 | 914.2 |
| 20260503040216 | 69 | 269 | 2.0 | 5.0 | 0.00 | 0.00 | 0.00 | 98 | 914.1 |
| 20260503035917 | 69 | 236 | 0.0 | 2.0 | 0.00 | 0.00 | 0.00 | 99 | 914.2 |
| 20260503035715 | 69 | 235 | 2.0 | 7.0 | 0.00 | 0.00 | 0.00 | 98 | 914.2 |
| 20260503035317 | 69 | 264 | 3.0 | 6.0 | 0.00 | 0.00 | 0.00 | 98 | 914.1 |
| 20260503035216 | 69 | 265 | 3.0 | 6.0 | 0.00 | 0.00 | 0.00 | 98 | 914.1 |
| 20260503034715 | 69 | 261 | 1.0 | 5.0 | 0.00 | 0.00 | 0.00 | 98 | 914.1 |
| 20260503034215 | 69 | 265 | 1.0 | 6.0 | 0.00 | 0.00 | 0.00 | 98 | 914.2 |
| 20260503033715 | 69 | 285 | 3.0 | 11.0 | 0.00 | 0.00 | 0.00 | 98 | 914.2 |
| 20260503033517 | 69 | 248 | 7.0 | 12.0 | 0.00 | 0.00 | 0.00 | 98 | 914.2 |
| 20260503033215 | 68 | 254 | 6.0 | 12.0 | 0.00 | 0.00 | 0.00 | 98 | 914.2 |
| 20260503032917 | 69 | 251 | 7.0 | 12.0 | 0.00 | 0.00 | 0.00 | 98 | 914.2 |
| 20260503032716 | 69 | 280 | 7.0 | 12.0 | 0.00 | 0.00 | 0.00 | 98 | 914.2 |
| 20260503032316 | 68 | 262 | 4.0 | 11.0 | 0.00 | 0.00 | 0.00 | 98 | 914.4 |
| 20260503032215 | 68 | 281 | 0.0 | 8.0 | 0.00 | 0.00 | 0.00 | 98 | 914.3 |
| 20260503031717 | 68 | 258 | 5.0 | 13.0 | 0.00 | 0.00 | 0.00 | 98 | 914.4 |
| 20260503031715 | 68 | 259 | 5.0 | 13.0 | 0.00 | 0.00 | 0.00 | 98 | 914.4 |
| 20260503031117 | 68 | 250 | 1.0 | 6.0 | 0.00 | 0.00 | 0.00 | 99 | 914.3 |
| 20260503030715 | 68 | 254 | 0.0 | 5.0 | 0.00 | 0.00 | 0.00 | 98 | 914.4 |
| 20260503030516 | 68 | 266 | 2.0 | 7.0 | 0.00 | 0.00 | 0.00 | 98 | 914.4 |
| 20260503030215 | 68 | 273 | 5.0 | 9.0 | 0.00 | 0.00 | 0.00 | 98 | 914.3 |
| 20260503025916 | 68 | 255 | 0.0 | 6.0 | 0.00 | 0.00 | 0.00 | 99 | 914.5 |
| 20260503025215 | 68 | 262 | 5.0 | 11.0 | 0.00 | 0.00 | 0.00 | 99 | 914.4 |
| 20260503024717 | 68 | 295 | 1.0 | 8.0 | 0.00 | 0.00 | 0.00 | 99 | 914.4 |
| 20260503024715 | 68 | 247 | 1.0 | 8.0 | 0.00 | 0.00 | 0.00 | 99 | 914.4 |
| 20260503024215 | 67 | 232 | 0.0 | 2.0 | 0.00 | 0.00 | 0.00 | 99 | 914.4 |
| 20260503024116 | 68 | 287 | 4.0 | 11.0 | 0.00 | 0.00 | 0.00 | 99 | 914.3 |
| 20260503023715 | 67 | 277 | 1.0 | 7.0 | 0.00 | 0.00 | 0.00 | 99 | 914.5 |
| 20260503023516 | 68 | 273 | 2.0 | 8.0 | 0.00 | 0.00 | 0.00 | 99 | 914.5 |